Погода в Брениях-Бахе

Испания     28°38′30″N   17°46′30″W
темп.,
°C
ветер,
м/с
пор.,
м/с
влажн.,
%
обл.,
%
осадки,
мм/ч
давл.,
гПа
погр.,
м
17 октября, вс
вс1701:00+20св22855 0.0 1018120
04:00+20св22837 0.0 1017102
07:00+20св22800 0.0 101697
10:00+22всв11680 0.0 1017137
13:00+24всв32640 0.0 1018359
16:00+24всв32620 0.0 1016529
19:00+23св32700 0.0 1017199
22:00+22ссв22740 0.0 101980
18 октября, пн
пн1801:00+21ссв12700 0.0 101862
04:00+21св11642 0.0 101847
07:00+21св23648 0.0 101880
10:00+22ссв1258100 0.0 1019102
13:00+24в2255100 0.0 1019389
16:00+24в225543 0.0 1017595
19:00+23всв225965 0.0 1018117
22:00+23ссв225991 0.0 101949
19 октября, вт
вт1901:00+22ссв2259100 0.0 101973
04:00+22с2354100 0.0 101972
07:00+22с1350100 0.0 101967
10:00+23ссв1346100 0.0 1021122
13:00+23ссв2351100 0.0 1021310
16:00+23ссв3453100 0.0 1020401
19:00+22ссв3455100 0.0 1020206
22:00+22с245252 0.0 1022111
20 октября, ср
ср2001:00+21с35530 0.0 1022126
04:00+20с355773 0.0 1021146
07:00+20с355792 0.0 1021179
10:00+21ссв355644 0.0 1023245
13:00+22ссв2557100 0.0 1023280
16:00+22ссв456314 0.0 1021376
19:00+21ссв457265 0.0 1022241
22:00+20ссв357023 0.0 1023228
21 октября, чт
чт2101:00+19с366821 0.0 1023202
04:00+19с356911 0.0 1022210
07:00+19ссв367433 0.0 1022256
10:00+20св367228 0.0 1023311
13:00+20св467764 0.0 1023309
16:00+21св567684 0.0 1021380
19:00+19св458317 0.0 1021299
22:00+19ссв578832 0.0 1023406